TimePDT,TemperatureF,Dew PointF,Humidity,Sea Level PressureIn,VisibilityMPH,Wind Direction,Wind SpeedMPH,Gust SpeedMPH,PrecipitationIn,Events,Conditions,WindDirDegrees,DateUTC
12:53 AM,28.9,18.0,64,30.23,10.0,Calm,Calm,-,N/A,,Clear,0,2014-03-18 07:53:00
1:53 AM,30.0,18.0,61,30.22,10.0,Calm,Calm,-,N/A,,Clear,0,2014-03-18 08:53:00
2:53 AM,28.0,19.0,69,30.22,10.0,East,5.8,-,N/A,,Clear,100,2014-03-18 09:53:00
3:53 AM,26.1,18.0,71,30.22,10.0,NE,3.5,-,N/A,,Clear,40,2014-03-18 10:53:00
4:53 AM,24.1,18.0,77,30.22,10.0,East,6.9,-,N/A,,Clear,90,2014-03-18 11:53:00
5:53 AM,23.0,17.1,78,30.22,10.0,Variable,3.5,-,N/A,,Clear,0,2014-03-18 12:53:00
6:53 AM,21.9,17.1,82,30.24,10.0,North,4.6,-,N/A,,Clear,10,2014-03-18 13:53:00
7:53 AM,28.9,19.0,67,30.25,10.0,NE,6.9,-,N/A,,Clear,40,2014-03-18 14:53:00
8:53 AM,32.0,19.9,61,30.23,10.0,NE,4.6,-,N/A,,Clear,50,2014-03-18 15:53:00
9:53 AM,35.1,19.9,54,30.22,10.0,East,11.5,-,N/A,,Clear,80,2014-03-18 16:53:00
10:53 AM,37.0,19.0,48,30.23,10.0,East,9.2,-,N/A,,Clear,80,2014-03-18 17:53:00
11:53 AM,39.9,19.9,45,30.22,10.0,ESE,10.4,-,N/A,,Clear,110,2014-03-18 18:53:00
12:53 PM,44.1,19.9,38,30.17,10.0,ENE,10.4,-,N/A,,Clear,70,2014-03-18 19:53:00
1:53 PM,46.9,17.1,30,30.14,10.0,ENE,13.8,23.0,N/A,,Clear,60,2014-03-18 20:53:00
2:53 PM,50.0,16.0,26,30.12,10.0,ENE,15.0,-,N/A,,Clear,70,2014-03-18 21:53:00
3:53 PM,50.0,14.0,24,30.11,10.0,NE,4.6,-,N/A,,Clear,40,2014-03-18 22:53:00
4:53 PM,52.0,14.0,22,30.09,10.0,NNE,8.1,-,N/A,,Clear,20,2014-03-18 23:53:00
5:53 PM,51.1,15.1,24,30.09,10.0,East,4.6,-,N/A,,Clear,100,2014-03-19 00:53:00
6:53 PM,48.9,16.0,27,30.10,10.0,ENE,5.8,-,N/A,,Clear,60,2014-03-19 01:53:00
7:53 PM,42.1,21.0,43,30.10,10.0,Calm,Calm,-,N/A,,Clear,0,2014-03-19 02:53:00
8:53 PM,35.1,19.9,54,30.12,10.0,ESE,4.6,-,N/A,,Clear,110,2014-03-19 03:53:00
9:53 PM,32.0,18.0,56,30.14,10.0,NE,8.1,-,N/A,,Clear,50,2014-03-19 04:53:00
10:53 PM,35.1,17.1,48,30.13,10.0,ENE,9.2,-,N/A,,Clear,70,2014-03-19 05:53:00
11:53 PM,39.0,16.0,39,30.08,10.0,ESE,9.2,-,N/A,,Clear,110,2014-03-19 06:53:00